{"data":{"norad_id":53682,"epoch":"2026-05-25T03:10:52.266432Z","epoch_age_seconds":60639,"freshness":"FRESH","line1":"1 53682U 22105AL  26145.13254938 -.00000371  00000+0 -21659-4 0  9996","line2":"2 53682  97.4497  26.1365 0002384  83.4153 276.7346 15.05656872204804","mean_motion":15.05656872,"eccentricity":0.0002384,"inclination_deg":97.4497,"raan_deg":26.1365,"arg_perigee_deg":83.4153,"mean_anomaly_deg":276.7346,"bstar":-2.1659e-5,"rev_number":20480,"period_min":95.639320404204,"perigee_km":547.83852864592,"apogee_km":551.14162123525,"semimajor_km":6927.6270749406,"source":"CELESTRAK","updated_at":"2026-05-25T13:38:17.527407Z"}}